Flag for U.S.A. Weather past 2 weeks in Stamford, Connecticut, U.S.A.

Now
73 °F

Rain. Fog.


Feels Like: 68 °F
Forecast: 74 / 86 °F
Wind: 8 mph from Northwest

Location: Westchester County Airport

Current Time: Jul 30, 2015 at 5:21:24 PM

Latest Report: Jul 30, 2015 at 5:00 PM


Visibility: 0 mi

Pressure: 29.81 "Hg

Humidity: 100%

Dew point: 73 °F

Location of StamfordLocation

Historic Weather in Stamford — Graph

°F

Stamford temperature yesterday

Maximum temperature yesterday: 91 °F (at 2:56 PM)
Minimum temperature yesterday: 72 °F (at 1:56 AM)
Average temperature yesterday: 81 °F

Past Weeks' High & Low Weather Summary

 TemperatureHumidityPressure
High91 °F (Jul 19, 3:56 PM)96% (Jul 19, 5:56 AM)30.10 "Hg (Jul 19, 5:56 AM)
Low59 °F (Jul 17, 5:56 AM)33% (Jul 24, 2:56 PM)29.57 "Hg (Jul 21, 5:56 PM)
Average75 °F67%29.89 "Hg
* Reported Jul 15 3:56 PM — Jul 30 3:56 PM, Stamford, Weather by CustomWeather, © 2015

Note: Actual official high and low records may vary slightly from our data, if they occured in-between our weather recording intervals... More about our weather records

Advertising

Stamford weather history for previous 24 hours

 ConditionsComfort  
Time TempWeatherWind HumidityBarometerVisibility
3:56 PM
Thu, Jul 30
79 °FPartly sunny.6 mph74%29.80 "Hg10 mi
2:56 PM84 °FLight rain. Broken clouds.9 mph72%29.80 "Hg10 mi
1:56 PM82 °FLight rain. Broken clouds.10 mph79%29.83 "Hg10 mi
12:56 PM81 °FDrizzle. Partly sunny.6 mph79%29.85 "Hg9 mi
11:56 AM80 °FPartly sunny.6 mph79%29.87 "Hg7 mi
10:56 AM80 °FPartly sunny.7 mph79%29.87 "Hg7 mi
9:56 AM79 °FPartly sunny.5 mph82%29.88 "Hg8 mi
8:56 AM78 °FPartly sunny.3 mph84%29.89 "Hg7 mi
7:56 AM77 °FBroken clouds.5 mph88%29.89 "Hg8 mi
6:56 AM77 °FScattered clouds.3 mph88%29.90 "Hg8 mi
5:56 AM76 °FPassing clouds.3 mph88%29.89 "Hg8 mi
4:56 AM76 °FClear.No wind88%29.89 "Hg9 mi
3:56 AM77 °FClear.No wind85%29.89 "Hg10 mi
2:56 AM76 °FClear.No wind85%29.90 "Hg9 mi
1:56 AM76 °FClear.3 mph85%29.90 "Hg9 mi
12:56 AM79 °FClear.No wind77%29.91 "Hg10 mi
11:56 PM
Wed, Jul 29
76 °FClear.No wind85%29.91 "Hg8 mi
10:56 PM76 °FClear.No wind85%29.91 "Hg8 mi
9:56 PM77 °FClear.No wind82%29.91 "Hg9 mi
8:56 PM80 °FSunny.3 mph71%29.90 "Hg9 mi
7:56 PM83 °FPassing clouds.7 mph61%29.90 "Hg9 mi
6:56 PM85 °FScattered clouds.9 mph55%29.90 "Hg10 mi
5:56 PM87 °FScattered clouds.9 mph45%29.90 "Hg10 mi
Weather by CustomWeather, © 2015

See weather overviewHow to use our weather pages